AirNav   Air Wisconsin pilot careers
 
 653 users online  

5K1 Zelmer Memorial Airpark Inc
Palmyra, Illinois, USA

GOING TO PALMYRA?


FAA INFORMATION EFFECTIVE 18 JULY 2019

Location

FAA Identifier: 5K1
Lat/Long: 39-25-12.1710N / 089-59-28.3830W
39-25.202850N / 089-59.473050W
39.4200475 / -89.9912175
(estimated)
Elevation: 663 ft. / 202.1 m (surveyed)
Variation: 01E (1985)
From city: 1 mile S of PALMYRA, IL
Time zone: UTC -5 (UTC -6 during Standard Time)
Zip code: 62674

Airport Operations

Airport use: Open to the public
Activation date: 07/1967
Control tower: no
ARTCC: KANSAS CITY CENTER
FSS: SAINT LOUIS FLIGHT SERVICE STATION
NOTAMs facility: STL (NOTAM-D service available)
Attendance: IREG
FOR ATTENDANT CALL 217-439-7497.
Wind indicator: lighted
Segmented circle: no
Lights: ACTVT LIRL RY 18/36 - CTAF.

Airport Communications

CTAF: 122.9

Nearby radio navigation aids

VOR radial/distance  VOR name  Freq  Var
SPIr211/29.1SPINNER VORTAC112.7001W

 
NDB name  Hdg/Dist  Freq  Var  ID
CIVIC MEMORIAL006/31.826301WCVM -.-. ...- --

Airport Services

Fuel available: MOGAS
Parking: hangars and tiedowns
Airframe service: NONE
Powerplant service: NONE
Bottled oxygen: NONE
Bulk oxygen: NONE

Runway Information

Runway 18/36

Dimensions: 2900 x 32 ft. / 884 x 10 m
Surface: asphalt, in good condition
Runway edge lights: low intensity
Runway edge markings: DSPLCD THLD MKD WITH WHITE LINE & 3 AMBER LIGHTS ON EACH SIDE.
RUNWAY 18  RUNWAY 36
Latitude: 39-25.417000N39-24.986167N
Longitude: 089-59.489667W089-59.489667W
Elevation: 655.0 ft.663.0 ft.
Traffic pattern: leftleft
Displaced threshold: no307 ft.
Markings: NSTD, in good conditionNSTD, in good condition
Runway end identifier lights: nono

Airport Ownership and Management from official FAA records

Ownership: Privately-owned
Owner: ZELMER MEMORIAL AIRPARK INC
PO BOX 102
PALMYRA, IL 62674
Phone 618-436-9003
Manager: ED CLARK
PO BOX 102
PALMYRA, IL 62674
Phone 217-439-7497

Airport Operational Statistics

Aircraft based on the field: 17
Single engine airplanes: 16
Ultralights: 1
    
Aircraft operations: avg 96/week *
64% local general aviation
34% transient general aviation
2% air taxi
* for 12-month period ending 30 April 2017

Additional Remarks

A58-36 13 FT ROAD 30 FT FM RY END & PERPENDICULAR TO CNTRLN OF RY.
A57-36 APCH RATIO TO DSPLCD THLD OVER 13 FT ROAD 337 DIST IS 25:1.
ADMIN BLDG CAN BE ACCESSED BY CIPHER LOCK WHICH HAS APPLICABLE INSTRUCTIONS
FOR CD CTC KANSAS CITY ARTCC AT 913-254-8508.

Instrument Procedures

There are no published instrument procedures at 5K1.

Some nearby airports with instrument procedures:

3LF - Litchfield Municipal Airport (21 nm SE)
KIJX - Jacksonville Municipal Airport (24 nm NW)
KSPI - Abraham Lincoln Capital Airport (29 nm NE)
KTAZ - Taylorville Municipal Airport (31 nm E)
KALN - St Louis Regional Airport (32 nm S)
 
Loc | Ops | Rwys | IFR | FBO | Links
Com | Nav | Svcs | Stats | Notes
Area around 5K1 (Zelmer Memorial Airpark Inc)
 
Road maps at: MapQuest Bing Google
 
Aerial photo
WARNING: Photo may not be current or correct
Aerial photo of 5K1 (Zelmer Memorial Airpark Inc)
Photo by Isaac Pizzo
Photo taken 04-Mar-2006

Do you have a better or more recent aerial photo of Zelmer Memorial Airpark Inc that you would like to share? If so, please send us your photo.

 
Sectional chart

 
Airport distance calculator
Flying to Zelmer Memorial Airpark Inc? Find the distance to fly.

From to 5K1

Sunrise and sunset
Times for 22-Jul-2019
 Local
(UTC-5)
 Zulu
(UTC)
Morning civil twilight05:2110:21
Sunrise05:5210:52
Sunset20:2101:21
Evening civil twilight20:5201:52

Current date and time
Zulu (UTC)  22-Jul-2019 11:14:33
Local (UTC-5)  22-Jul-2019 06:14:33
 
METAR
K3LF 
21nm SE 
221055Z AUTO 36009KT 10SM RA SCT038 BKN048 OVC055 20/19 A3000 RMK AO2 LTG DSNT SW T02020186
KIJX 
24nm NW 
221055Z AUTO 34007KT 10SM -RA SCT048 BKN095 OVC110 19/17 A3001 RMK AO2 LTG DSNT S T01930167
KSPI 
29nm NE 
221052Z 34005KT 10SM -RA SCT100 19/18 A2999 RMK AO2 RAE02B35 SLP152 P0000 T01940178
KTAZ 
31nm E 
221055Z AUTO 35003KT 10SM RA BKN090 OVC120 19/17 A2999 RMK AO2 LTG DSNT SW P0002 T01930174
KALN 
32nm S 
221055Z AUTO 31006KT 2 1/2SM +VCTSRA BKN005 BKN009 OVC023 19/19 A2997 RMK AO2 LTG DSNT SW P0027 T01880188
KSET 
36nm SW 
221054Z AUTO A2996 RMK AO2 LTG DSNT E AND S SLPNO PWINO $
KPPQ 
39nm W 
221055Z AUTO 01003KT 10SM BKN090 OVC120 19/18 A3003 RMK AO2 LTG DSNT S T01930182
TAF
KSPI 
29nm NE 
220521Z 2206/2306 03006KT P6SM VCSH SCT030 BKN060 TEMPO 2206/2209 6SM -SHRA BKN030 FM221400 01010KT P6SM SCT150 FM230100 01004KT P6SM SKC
NOTAMs
Click for the latest NOTAMs
NOTAMs are issued by the DoD/FAA and will open in a separate window not controlled by AirNav.

 

 
 

Would you like to see your business listed on this page?

 If your business provides an interesting product or service to pilots, flight crews, aircraft, or users of the Zelmer Memorial Airpark Inc, you should consider listing it here.  To start the listing process, click on the button below
 
Add a business
 

Other Pages about Zelmer Memorial Airpark Inc

Update a link
 
Copyright © AirNav, LLC. All rights reserved. Privacy Policy  Contact